Regional Weather Roundup
Issued by NWS

Home | Current Version | Previous Version | Text Only | Print | Product List | Glossary Off
Versions: 1 2 3 4 5 6 7 8 9 10 11 12 13 14 15 16 17 18 19 20 21 22 23 24 25 26 27 28 29 30 31 32 33 34 35 36 37 38 39 40 41 42 43 44 45 46 47 48 49 50

000
ASUS43 KIND 242109
RWRIN

WEATHER ROUNDUP FOR INDIANA
NATIONAL WEATHER SERVICE INDIANAPOLIS IN
500 PM EDT TUE MAY 24 2016

NOTE: "FAIR" INDICATES FEW OR NO CLOUDS BELOW 12,000 FEET WITH NO
SIGNIFICANT WEATHER AND/OR OBSTRUCTIONS TO VISIBILITY.

* - STATION DOES NOT REPORT WEATHER SUCH AS PRECIPITATION OR FOG.

+ - STATION NOT QUALITY CONTROLLED BY THE NATIONAL WEATHER SERVICE.
    USE DATA WITH CAUTION...ESPECIALLY DEWPOINT AND RELATIVE
    HUMIDITY OBSERVATIONS.

INZ001>003-010>013-019-020-242200-
NORTHWEST INDIANA

CITY           SKY/WX    TMP DP  RH WIND       PRES   REMARKS
GARY /AIRPORT/ PTSUNNY   88  57  35 SW12G23   29.95F
KNOX *+          N/A     86  27  11 SW13G18   29.97S
LA PORTE +     SUNNY     88  43  21 SW10      29.97F
MICHIGAN CITY+ SUNNY     82  48  30 SW13G18   29.97S
MONTICELLO +   SUNNY     85  35  16 S13       29.99S
RENSSELAER +   SUNNY     88  37  16 S14G24    29.98R
VALPARAISO     SUNNY     85  47  26 SW13G20   29.97F

$$

LMZ046-743>745-242200-
SOUTHERN LAKE MICHIGAN

STATION/POSITION TIME  TEMP    WIND        PRES    WAVE
                       AIR SEA DIR/SP/G            HT
                 (UTC) (F)     (DEG/KT/KT) (MB)    (FT)
BURNS HARBOR     2000   84     190/ 16/ 19 1014.6F
MICHIGAN CITY    2000   81     190/ 15/ 18   N/A
5NW MICH CITY    2100   71 60  230/  4/  6   N/A     1

$$

INZ004-005-014>016-021>024-242200-
NORTH CENTRAL INDIANA

CITY           SKY/WX    TMP DP  RH WIND       PRES   REMARKS
ELKHART        SUNNY     84  57  39 S13G18    29.98F
GOSHEN         SUNNY     83  46  27 SW12G20   29.98F
LOGANSPORT +   SUNNY     82  48  30 S12       30.01S
PERU/GRISSOM   SUNNY     84  51  31 SW9       30.00S
ROCHESTER +    SUNNY     86  48  26 SW9       30.00S
SOUTH BEND     SUNNY     85  48  27 S16G23    29.97F
WARSAW +       SUNNY     82  48  30 SW6       29.99F

$$

INZ006>009-017-018-025>027-242200-
NORTHEAST INDIANA

CITY           SKY/WX    TMP DP  RH WIND       PRES   REMARKS
ANGOLA *+      SUNNY     82  52  34 SW12      30.00F
AUBURN +       SUNNY     82  45  26 S5        30.01F
FORT WAYNE     MOSUNNY   84  47  27 SW13      30.01F
HUNTINGTON +   SUNNY    N/A N/A N/A SW8       30.00F

$$

INZ028-029-035-036-043>045-051>053-242200-
WEST CENTRAL INDIANA

CITY           SKY/WX    TMP DP  RH WIND       PRES   REMARKS
CRAWFORDSVL +  SUNNY     82  53  35 SW9       30.02S
GREENCASTLE +  SUNNY     81  59  47 SW7       30.04R
LAFAYETTE      SUNNY     84  48  28 SW9       29.99S
TERRE HAUTE    MOSUNNY   81  54  39 SW13      30.03R

$$

INZ030>032-037>040-046>048-054>057-064-065-242200-
CENTRAL INDIANA

CITY           SKY/WX    TMP DP  RH WIND       PRES   REMARKS
CP ATTERBURY + SUNNY     81  50  34 SW5       30.04S
COLUMBUS       SUNNY     81  50  34 S9        30.04F
FRANKFORT +      N/A     85  19   8 SW9G16    30.03R
GREENWOOD *+   SUNNY     82  50  32 SW7       30.04S
INDIANAPOLIS   MOSUNNY   82  54  37 S13       30.02S
-EAGLE CREEK   SUNNY     82  49  31 S6        30.02S
KOKOMO *+      SUNNY     82  52  34 SW8G17    30.01R
MARION +       SUNNY     83  43  24 SW10      30.02F
SHELBYVILLE    SUNNY     84  51  31 SW8       30.02F
ZIONSVILLE +   SUNNY     82  50  33 S12       30.04R

$$

INZ033-034-041-042-049-050-058-059-242200-
EAST CENTRAL INDIANA

CITY           SKY/WX    TMP DP  RH WIND       PRES   REMARKS
MUNCIE         SUNNY     84  42  22 SW8       30.03F

$$

INZ060-061-067>069-081>083-085>088-242200-
SOUTHWEST INDIANA

CITY           SKY/WX    TMP DP  RH WIND       PRES   REMARKS
EVANSVILLE     CLOUDY    79  54  41 SW9       30.06S
HUNTINGBURG *+ MOSUNNY   82  57  42 S9        30.06S
WASHINGTON +   SUNNY     83  57  40 SW9G20    30.04R

$$

INZ062-063-066-070>080-084-089>092-242200-
SOUTH CENTRAL AND SOUTHEAST INDIANA

CITY           SKY/WX    TMP DP  RH WIND       PRES   REMARKS
BEDFORD +      SUNNY     82  64  54 SW10      30.04S
BLOOMINGTON    MOSUNNY   84  51  31 SW10G18   30.04S
MADISON *+     SUNNY     82  36  18 SE6       30.08F
NORTH VERNON + SUNNY     82  55  39 CALM      30.06
SEYMOUR +      SUNNY     84  54  34 S12       30.03F

$$





USA.gov is the U.S. government's official web portal to all federal, state and local government web resources and services.